Regional Weather Roundup
Issued by NWS New Orleans/Baton Rouge, LA

Home | Current Version | Previous Version | Graphics & Text | Print | Product List | Glossary On
Versions: 1 2 3 4 5 6 7 8 9 10 11 12 13 14 15 16 17 18 19 20 21 22 23 24 25 26 27 28 29 30 31 32 33 34 35 36 37 38 39 40 41 42 43 44 45 46 47 48 49 50
085
ASUS44 KLIX 281705
RWRLIX
NEW ORLEANS REGIONAL WEATHER ROUNDUP
NATIONAL WEATHER SERVICE NEW ORLEANS LA
1200 PM CDT MON JUL 28 2014

NOTE: "FAIR" INDICATES FEW OR NO CLOUDS BELOW 12,000 FEET WITH NO
      SIGNIFICANT WEATHER AND/OR OBSTRUCTIONS TO VISIBILITY.
      SKY/WX - SKY CONDITION AND SIGNIFICANT WEATHER.
      TMP - AIR TEMPERATURE.     DP    - DEWPOINT TEMPERATURE.
      RH  - RELATIVE HUMIDITY.   PRES  - PRESSURE.
      HI  - HEAT INDEX.          WCI   - WIND CHILL INDEX.

*  THESE STATIONS ARE NOT NWS OR FAA STATIONS AND ARE NOT UNDER
   NWS QUALITY CONTROL.

LAZ038-040-048-061>063-065>067-069-281800-
SOUTHEAST LOUISIANA

CITY           SKY/WX    TMP DP  RH WIND       PRES   REMARKS
N.O. AUDUBON     N/A     94  76  56 MISG        N/A  HX 106
N.O. INTL ARPT PTSUNNY   91  74  57 W12       30.07F HX 100
N.O. LAKEFRONT SUNNY     89  77  67 W14       30.08F HX 101
N.O. DOWNTOWN*   N/A     91  72  52 W7        30.08F HX  98
SLIDELL        MOSUNNY   90  77  65 SW7       30.05F HX 103
BATON ROUGE    PTSUNNY   91  77  63 W12       30.09S HX 104
BOOTHVILLE     SUNNY     88  76  67 W12       30.09F HX  99
BELLE CHASSE   PTSUNNY   90  73  57 SW8       30.07F HX  98
BOGALUSA*        N/A     92  75  59 W9        30.07F HX 103
GALLIANO*      NOT AVBL
NEW ROADS*     PTSUNNY   85  77  75 W6        30.10S HX  96
GONZALES*        N/A     88  77  70 W6        30.08F HX 100
HAMMOND*       MOSUNNY   91  75  59 NW7       30.09S HX 102
HOUMA*         PTSUNNY   91  72  52 W10       30.10S HX  98
PORT FOURCHON* MOSUNNY   88  75  66 W12       30.11F HX  97

$$

MSZ070-080>082-281800-
SOUTHERN MISSISSIPPI

CITY           SKY/WX    TMP DP  RH WIND       PRES   REMARKS
MCCOMB         PTSUNNY   88  75  65 NW13G20   30.08F HX  97
GULFPORT       MOSUNNY   96  76  52 NW14G21   30.04F HX 109
BILOXI         MOSUNNY   92  78  62 VRB5      30.04F HX 106
PASCAGOULA     MOSUNNY   92  76  59 NW9       30.04F HX 104
STENNIS ARPT*  MOSUNNY  N/A N/A N/A NW13      30.05F

$$

COASTAL OBSERVATIONS
LAKE AND NEARSHORE STATIONS

STATION/POSITION TIME  TEMP    WIND        PRES    WAVE
                       AIR SEA DIR/SP/G            HT/PER
                 (UTC) (F)     (DEG/KT/KT) (MB)    (FT/S)
PASCAGOULA       1700   87     240/ 11/ 15 1017.1
WAVELAND YACHT   1700   88     310/  9/ 11 1017.3
GRAND ISLE       1700   86 86  290/ 11/ 13 1019.7
SOUTHWEST PASS   1700   87 84  310/ 12/ 17 1019.7
NEW CANAL        1700   89 85  290/  4/  8 1019.1
SHELL BEACH      1700   87 83  290/ 10/ 12 1018.4

OFFSHORE STATIONS

STATION/POSITION TIME  TEMP    WIND        PRES    WAVE
                       AIR SEA DIR/SP/G            HT/PER
                 (UTC) (F)     (DEG/KT/KT) (MB)    (FT/S)

$$




USA.gov is the U.S. government's official web portal to all federal, state and local government web resources and services.